Regional Weather Roundup
Issued by NWS

Home | Current Version | Previous Version | Text Only | Print | Product List | Glossary On
Versions: 1 2 3 4 5 6 7 8 9 10 11 12 13 14 15 16 17 18 19 20 21 22 23 24 25 26 27 28 29 30 31 32 33 34 35 36 37 38 39 40 41 42 43 44 45 46 47 48 49 50
000
ASUS44 KFWD 211710
RWRTX
NORTH TEXAS HOURLY WEATHER ROUNDUP
NATIONAL WEATHER SERVICE FORT WORTH TX
1200 PM CDT SAT OCT 21 2017

NOTE: "FAIR" INDICATES FEW OR NO CLOUDS BELOW 12,000 FEET WITH NO
SIGNIFICANT WEATHER AND/OR OBSTRUCTIONS TO VISIBILITY.

TXZ118-119-211800-
DALLAS/FORT WORTH METROPLEX

CITY           SKY/WX    TMP DP  RH WIND       PRES   REMARKS
DFW AIRPORT    PTSUNNY   79  68  69 S17       29.91F
DALLAS LOVE    PTSUNNY   79  68  69 S15       29.93F
FTW MEACHAM    CLOUDY    78  69  73 S15G23    29.91F
DAL-EXECUTIVE  CLOUDY    80  70  71 VRB7      29.93F
FTW-ALLIANCE   CLOUDY    77  67  71 S13G20    29.91F
FTW-SPINKS     CLOUDY    79  66  65 S13G20    29.94F
ARLINGTON      CLOUDY    78  69  73 S15       29.92F
GRAND PRAIRIE  PTSUNNY   79  66  65 S8G18     29.94F
ADDISON        PTSUNNY   77  68  73 S15G22    29.94F
MESQUITE       CLOUDY    81  66  61 SE13      29.95S
LANCASTER      CLOUDY    78  68  71 S9G17     29.95S
$$

TXZ091>094-102>105-117-120-121-131>134-211800-
NORTH CENTRAL TEXAS

CITY           SKY/WX    TMP DP  RH WIND       PRES   REMARKS
SHRMAN/DENISON CLOUDY    77  67  72 S18G25    29.95S
GAINESVILLE    CLOUDY    75  65  72 S15       29.94S
BOWIE          CLOUDY    76  66  71 S16       29.90F
BRIDGEPORT     CLOUDY    77  65  66 S14       29.93R
DECATUR        PTSUNNY   77  66  67 S12G17    29.91R
DENTON         CLOUDY    77  68  73 S16       29.92F
MCKINNEY       CLOUDY    76  70  82 S12       29.93F
BONHAM         CLOUDY    75  66  72 S14G21    29.96S
GREENVILLE     CLOUDY    81  68  65 S10       29.96F
ROCKWALL       CLOUDY    78  68  71 S17G28    29.94F
TERRELL        CLOUDY    80  67  64 S17       29.95F
WAXAHACHIE     CLOUDY    80  69  70 S15G21    29.95S
CLEBURNE       CLOUDY    77  70  78 S16G23    29.94F
GRANBURY       CLOUDY    80  66  62 S15       29.92F
$$

TXZ083>090-098>101-113>116-127>130-139>142-154-155-211800-
WESTERN NORTH TEXAS

CITY           SKY/WX    TMP DP  RH WIND       PRES   REMARKS
WICHITA FALLS  LGT RAIN  76  65  68 S23       29.85F
WF-KICKAPOO    CLOUDY    75  65  72 S15G22    29.89F
VERNON         CLOUDY    78  61  54 S17G24    29.83F
ABILENE        PTSUNNY   74  65  73 S12       29.90S
ABILENE-DYESS  MOSUNNY   76  65  68 S22G32    29.87F
GRAHAM         CLOUDY    77  65  67 S9G20     29.88R
BRECKENRIDGE   CLOUDY    79  64  59 S22       29.90F HAZE
CISCO          CLOUDY    75  64  69 SW15G24   29.93R
EASTLAND       CLOUDY    75  65  70 SW15G26   29.93R
RANGER         CLOUDY    75  65  70 SW14G20   29.93R
MINERAL WELLS  CLOUDY    77  65  66 S9        29.90S
STEPHENVILLE   CLOUDY    78  65  64 S17G25    29.94S
COMANCHE       CLOUDY    77  66  69 S13G21    29.93S
BROWNWOOD      CLOUDY    81  64  57 S15G24    29.92S
COLEMAN        CLOUDY    77  64  62 S16       29.94R
$$

TXZ143>147-156>162-174-175-211800-
CENTRAL TEXAS

CITY           SKY/WX    TMP DP  RH WIND       PRES   REMARKS
WACO           PTSUNNY   81  68  64 S14       29.93F
WACO-MCGREGOR  MOSUNNY   85  69  58 S20       29.93S
HILLSBORO      CLOUDY    81  69  68 S18       29.94S
CORSICANA      PTSUNNY   82  70  66 S14       29.95F
MEXIA          PTSUNNY   83  69  61 S15G25    29.94S
HEARNE         PTSUNNY   82  73  74 S12G18    29.96S
CAMERON        PTSUNNY   84  70  63 S14G20    29.93F
TEMPLE         SUNNY     85  68  56 S21G29    29.93F
KILLEEN        CLOUDY    80  66  62 S14       29.93R
KILLEEN-SKYLRK MOSUNNY   82  67  60 S18G30    29.93F
FORT HOOD      PTSUNNY   80  66  62 S13       29.90F
GATESVILLE     MOSUNNY   82  66  57 S17       29.94F
HAMILTON       CLOUDY    80  65  60 S18G29    29.93F
LAMPASAS       PTSUNNY   81  68  65 S10G21    29.93F
$$

TXZ095>097-106>112-122>126-135>138-148>153-164>167-211800-
EAST TEXAS

CITY           SKY/WX    TMP DP  RH WIND       PRES   REMARKS
PARIS          CLOUDY    77  68  73 S15       29.98F
SULPHUR SPRNGS CLOUDY    78  68  70 S13       29.99F
MOUNT PLEASANT MOSUNNY   80  70  71 S13       30.00S
GILMER         CLOUDY    77  69  76 SE7G17    29.99S
MINEOLA        CLOUDY    77  70  78 S7G17     29.97F
TYLER          PTSUNNY   80  69  69 SW15      29.97S
LONGVIEW       PTSUNNY   82  71  69 S17G24    29.97S
MARSHALL       CLOUDY    80  67  66 S12G18    30.01S
ATHENS         CLOUDY    77  68  73 S12       29.96S
PALESTINE      PTSUNNY   80  72  76 SE12      29.98S
JACKSONVILLE   PTSUNNY   79  70  74 S12G18    30.01S
HENDERSON      CLOUDY    80  71  74 SE10      29.99S
CENTER         CLOUDY    82  73  73 SE8       30.01R
NACOGDOCHES    PTSUNNY   80  72  76 S12       29.99S
LUFKIN         PTSUNNY   82  73  74 S10       29.98S
$$

SUPPLEMENTAL OBSERVATIONS (NWS FORT WORTH AREA)

CITY           SKY/WX    TMP DP  RH WIND       PRES   REMARKS
POSSUM KINGDOM   N/A     77  64  65 S13         N/A
GRANBURY         N/A     79  66  65 S15G24      N/A
MCGREGOR         N/A     81  66  61 S9G23       N/A
TEMPLE           N/A     84  66  54 S16G25      N/A
$$

SUPPLEMENTAL OBSERVATIONS (NWS NORMAN AREA)

CITY           SKY/WX    TMP DP  RH WIND       PRES   REMARKS
GOODLETT         N/A     79  62  55 S17G24    29.81S
ODELL            N/A     80  64  59 S25G31    29.84F
CROWELL          N/A     82  65  55 S23       29.82F
KNOX CITY        N/A     82  62  50 S21G28    29.84F
SEYMOUR          N/A     79  63  58 S22G29    29.85S
MILLERS CREEK    N/A     79  64  61 S21G26      N/A
$$

SUPPLEMENTAL OBSERVATIONS (NWS SAN ANGELO AREA)

CITY           SKY/WX    TMP DP  RH WIND       PRES   REMARKS
WEINERT          N/A     81  64  55 S22       29.85F
HASKELL          N/A     80  61  52 S22G30    29.86S
THROCKMORTON     N/A     78  65  64 S16       29.87F
STAMFORD         N/A     81  65  59 S21       29.87F
CLYDE            N/A     74  64  70 S21       29.91F
HAMBY            N/A     77  64  65 S16G28      N/A
$$

SUPPLEMENTAL OBSERVATIONS (NWS SHREVEPORT AREA)

CITY           SKY/WX    TMP DP  RH WIND       PRES   REMARKS
TEXARKANA        N/A     81  70  69 S5          N/A
LUFKIN           N/A     82  75  78 MISG        N/A
N SABINE NF      N/A     81  72  74 MISG        N/A
$$

SUPPLEMENTAL OBSERVATIONS ARE A COLLECTION OF AUTOMATED INSTRUMENTS
THAT ARE MAINTAINED BY A VARIETY OF FEDERAL AND STATE AGENCIES.
CERTAIN ELEMENTS...SUCH AS HUMIDITY VALUES AND SUSTAINED WIND
SPEEDS...MAY BE APPROXIMATED.





USA.gov is the U.S. government's official web portal to all federal, state and local government web resources and services.